owner,sensor,date,latitude,longitude,vertical_datum,sea_water_practical_salinity,qcFlag 
DISL,ioos:station:DISL:CATA:1,2016-12-01T00:00:00Z,30.3085,-88.1395,2.329,25.83,1111122 
DISL,ioos:station:DISL:CATA:1,2016-12-01T00:30:00Z,30.3085,-88.1395,2.417,26.21,1111122 
DISL,ioos:station:DISL:CATA:1,2016-12-01T01:00:00Z,30.3085,-88.1395,2.438,26.08,1111122 
DISL,ioos:station:DISL:CATA:1,2016-12-01T01:30:00Z,30.3085,-88.1395,2.467,25.88,1111122 
DISL,ioos:station:DISL:CATA:1,2016-12-01T02:00:00Z,30.3085,-88.1395,2.502,26.14,1111122 
DISL,ioos:station:DISL:CATA:1,2016-12-01T02:30:00Z,30.3085,-88.1395,2.537,26.26,1111122 
DISL,ioos:station:DISL:CATA:1,2016-12-01T03:00:00Z,30.3085,-88.1395,2.546,26.32,1111122 
DISL,ioos:station:DISL:CATA:1,2016-12-01T03:30:00Z,30.3085,-88.1395,2.55,26.16,1111122 
DISL,ioos:station:DISL:CATA:1,2016-12-01T04:00:00Z,30.3085,-88.1395,2.546,25.97,1111122 
DISL,ioos:station:DISL:CATA:1,2016-12-01T04:30:00Z,30.3085,-88.1395,2.548,25.89,1111122 
DISL,ioos:station:DISL:CATA:1,2016-12-01T05:00:00Z,30.3085,-88.1395,2.558,25.75,1111122 
DISL,ioos:station:DISL:CATA:1,2016-12-01T05:30:00Z,30.3085,-88.1395,2.543,25.87,1111122 
DISL,ioos:station:DISL:CATA:1,2016-12-01T06:00:00Z,30.3085,-88.1395,2.523,26.3,1111122 
DISL,ioos:station:DISL:CATA:1,2016-12-01T06:30:00Z,30.3085,-88.1395,2.495,25.5,1111122 
DISL,ioos:station:DISL:CATA:1,2016-12-01T07:00:00Z,30.3085,-88.1395,2.478,25.72,1111122 
DISL,ioos:station:DISL:CATA:1,2016-12-01T07:30:00Z,30.3085,-88.1395,2.451,25.99,1111122 
DISL,ioos:station:DISL:CATA:1,2016-12-01T08:00:00Z,30.3085,-88.1395,2.418,26.13,1111122 
DISL,ioos:station:DISL:CATA:1,2016-12-01T08:30:00Z,30.3085,-88.1395,2.383,25.18,1111122 
DISL,ioos:station:DISL:CATA:1,2016-12-01T09:00:00Z,30.3085,-88.1395,2.336,25.01,1111122 
DISL,ioos:station:DISL:CATA:1,2016-12-01T09:30:00Z,30.3085,-88.1395,2.287,24.87,1111122 
DISL,ioos:station:DISL:CATA:1,2016-12-01T10:00:00Z,30.3085,-88.1395,2.234,24.71,1111122 
DISL,ioos:station:DISL:CATA:1,2016-12-01T10:30:00Z,30.3085,-88.1395,2.191,25.28,1111122 
DISL,ioos:station:DISL:CATA:1,2016-12-01T11:00:00Z,30.3085,-88.1395,2.149,25.01,1111122 
DISL,ioos:station:DISL:CATA:1,2016-12-01T11:30:00Z,30.3085,-88.1395,2.103,25.7,1111122 
DISL,ioos:station:DISL:CATA:1,2016-12-01T12:00:00Z,30.3085,-88.1395,2.068,25.52,1111122 
DISL,ioos:station:DISL:CATA:1,2016-12-01T12:30:00Z,30.3085,-88.1395,2.028,26.11,1111122 
DISL,ioos:station:DISL:CATA:1,2016-12-01T13:00:00Z,30.3085,-88.1395,2.006,25.94,1111122 
DISL,ioos:station:DISL:CATA:1,2016-12-01T13:30:00Z,30.3085,-88.1395,1.993,26.03,1111122 
DISL,ioos:station:DISL:CATA:1,2016-12-01T14:00:00Z,30.3085,-88.1395,1.98,25.46,1111122 
DISL,ioos:station:DISL:CATA:1,2016-12-01T14:30:00Z,30.3085,-88.1395,1.982,25.58,1111122 
DISL,ioos:station:DISL:CATA:1,2016-12-01T15:00:00Z,30.3085,-88.1395,1.986,26.72,1111122 
DISL,ioos:station:DISL:CATA:1,2016-12-01T15:30:00Z,30.3085,-88.1395,2.003,25.98,1111122 
DISL,ioos:station:DISL:CATA:1,2016-12-01T16:00:00Z,30.3085,-88.1395,2.039,24.92,1111122 
DISL,ioos:station:DISL:CATA:1,2016-12-01T16:30:00Z,30.3085,-88.1395,2.058,25.28,1111122 
DISL,ioos:station:DISL:CATA:1,2016-12-01T17:00:00Z,30.3085,-88.1395,2.073,26.11,1111122 
DISL,ioos:station:DISL:CATA:1,2016-12-01T17:30:00Z,30.3085,-88.1395,2.084,25.86,1111122 
DISL,ioos:station:DISL:CATA:1,2016-12-01T18:00:00Z,30.3085,-88.1395,2.097,25.08,1111122 
DISL,ioos:station:DISL:CATA:1,2016-12-01T18:30:00Z,30.3085,-88.1395,2.112,26.14,1111122 
DISL,ioos:station:DISL:CATA:1,2016-12-01T19:00:00Z,30.3085,-88.1395,2.13,26.54,1111122 
DISL,ioos:station:DISL:CATA:1,2016-12-01T19:30:00Z,30.3085,-88.1395,2.149,24.75,1111122 
DISL,ioos:station:DISL:CATA:1,2016-12-01T20:00:00Z,30.3085,-88.1395,2.168,26.09,1111122 
DISL,ioos:station:DISL:CATA:1,2016-12-01T20:30:00Z,30.3085,-88.1395,2.187,25.13,1111122 
DISL,ioos:station:DISL:CATA:1,2016-12-01T21:00:00Z,30.3085,-88.1395,2.206,25.9,1111122 
DISL,ioos:station:DISL:CATA:1,2016-12-01T21:30:00Z,30.3085,-88.1395,2.219,25.69,1111122 
DISL,ioos:station:DISL:CATA:1,2016-12-01T22:00:00Z,30.3085,-88.1395,2.238,26.21,1111122 
DISL,ioos:station:DISL:CATA:1,2016-12-01T22:30:00Z,30.3085,-88.1395,2.252,25.75,1111122 
DISL,ioos:station:DISL:CATA:1,2016-12-01T23:00:00Z,30.3085,-88.1395,2.263,25.33,1111122 
DISL,ioos:station:DISL:CATA:1,2016-12-01T23:30:00Z,30.3085,-88.1395,2.277,25.87,1111122 
DISL,ioos:station:DISL:CATA:1,2016-12-02T00:00:00Z,30.3085,-88.1395,2.291,26.37,1111122 
DISL,ioos:station:DISL:CATA:1,2016-12-02T00:30:00Z,30.3085,-88.1395,2.311,25.12,1111122 
DISL,ioos:station:DISL:CATA:1,2016-12-02T01:00:00Z,30.3085,-88.1395,2.338,25.25,1111122 
DISL,ioos:station:DISL:CATA:1,2016-12-02T01:30:00Z,30.3085,-88.1395,2.357,25.03,1111122 
DISL,ioos:station:DISL:CATA:1,2016-12-02T02:00:00Z,30.3085,-88.1395,2.384,25.74,1111122 
DISL,ioos:station:DISL:CATA:1,2016-12-02T02:30:00Z,30.3085,-88.1395,2.41,25.67,1111122 
DISL,ioos:station:DISL:CATA:1,2016-12-02T03:00:00Z,30.3085,-88.1395,2.432,25.0,1111122 
DISL,ioos:station:DISL:CATA:1,2016-12-02T03:30:00Z,30.3085,-88.1395,2.447,26.08,1111122 
DISL,ioos:station:DISL:CATA:1,2016-12-02T04:00:00Z,30.3085,-88.1395,2.466,26.28,1111122 
DISL,ioos:station:DISL:CATA:1,2016-12-02T04:30:00Z,30.3085,-88.1395,2.465,26.71,1111122 
DISL,ioos:station:DISL:CATA:1,2016-12-02T05:00:00Z,30.3085,-88.1395,2.465,26.24,1111122 
DISL,ioos:station:DISL:CATA:1,2016-12-02T05:30:00Z,30.3085,-88.1395,2.453,26.3,1111122 
DISL,ioos:station:DISL:CATA:1,2016-12-02T06:00:00Z,30.3085,-88.1395,2.415,26.38,1111122 
DISL,ioos:station:DISL:CATA:1,2016-12-02T06:30:00Z,30.3085,-88.1395,2.402,26.08,1111122 
DISL,ioos:station:DISL:CATA:1,2016-12-02T07:00:00Z,30.3085,-88.1395,2.365,26.51,1111122 
DISL,ioos:station:DISL:CATA:1,2016-12-02T07:30:00Z,30.3085,-88.1395,2.342,25.51,1111122 
DISL,ioos:station:DISL:CATA:1,2016-12-02T08:00:00Z,30.3085,-88.1395,2.305,25.66,1111122 
DISL,ioos:station:DISL:CATA:1,2016-12-02T08:30:00Z,30.3085,-88.1395,2.272,25.9,1111122 
DISL,ioos:station:DISL:CATA:1,2016-12-02T09:00:00Z,30.3085,-88.1395,2.249,25.94,1111122 
DISL,ioos:station:DISL:CATA:1,2016-12-02T09:30:00Z,30.3085,-88.1395,2.213,25.07,1111122 
DISL,ioos:station:DISL:CATA:1,2016-12-02T10:00:00Z,30.3085,-88.1395,2.175,25.0,1111122 
DISL,ioos:station:DISL:CATA:1,2016-12-02T10:30:00Z,30.3085,-88.1395,2.139,25.48,1111122 
DISL,ioos:station:DISL:CATA:1,2016-12-02T11:00:00Z,30.3085,-88.1395,2.101,25.72,1111122 
DISL,ioos:station:DISL:CATA:1,2016-12-02T11:30:00Z,30.3085,-88.1395,2.045,26.54,1111122 
DISL,ioos:station:DISL:CATA:1,2016-12-02T12:00:00Z,30.3085,-88.1395,2.001,27.07,1111122 
DISL,ioos:station:DISL:CATA:1,2016-12-02T12:30:00Z,30.3085,-88.1395,1.959,26.0,1111122 
DISL,ioos:station:DISL:CATA:1,2016-12-02T13:00:00Z,30.3085,-88.1395,1.923,26.32,1111122 
DISL,ioos:station:DISL:CATA:1,2016-12-02T13:30:00Z,30.3085,-88.1395,1.896,25.77,1111122 
DISL,ioos:station:DISL:CATA:1,2016-12-02T14:00:00Z,30.3085,-88.1395,1.883,26.17,1111122 
DISL,ioos:station:DISL:CATA:1,2016-12-02T14:30:00Z,30.3085,-88.1395,1.867,25.84,1111122 
DISL,ioos:station:DISL:CATA:1,2016-12-02T15:00:00Z,30.3085,-88.1395,1.874,25.53,1111122 
DISL,ioos:station:DISL:CATA:1,2016-12-02T15:30:00Z,30.3085,-88.1395,1.885,25.66,1111122 
DISL,ioos:station:DISL:CATA:1,2016-12-02T16:00:00Z,30.3085,-88.1395,1.891,25.53,1111122 
DISL,ioos:station:DISL:CATA:1,2016-12-02T16:30:00Z,30.3085,-88.1395,1.907,25.63,1111122 
DISL,ioos:station:DISL:CATA:1,2016-12-02T17:00:00Z,30.3085,-88.1395,1.919,25.88,1111122 
DISL,ioos:station:DISL:CATA:1,2016-12-02T17:30:00Z,30.3085,-88.1395,1.933,25.69,1111122 
DISL,ioos:station:DISL:CATA:1,2016-12-02T18:00:00Z,30.3085,-88.1395,1.951,24.75,1111122 
DISL,ioos:station:DISL:CATA:1,2016-12-02T18:30:00Z,30.3085,-88.1395,1.973,25.38,1111122 
DISL,ioos:station:DISL:CATA:1,2016-12-02T19:00:00Z,30.3085,-88.1395,1.997,24.83,1111122 
DISL,ioos:station:DISL:CATA:1,2016-12-02T19:30:00Z,30.3085,-88.1395,2.023,24.81,1111122 
DISL,ioos:station:DISL:CATA:1,2016-12-02T20:00:00Z,30.3085,-88.1395,2.046,24.89,1111122 
DISL,ioos:station:DISL:CATA:1,2016-12-02T20:30:00Z,30.3085,-88.1395,2.062,24.7,1111122 
DISL,ioos:station:DISL:CATA:1,2016-12-02T21:00:00Z,30.3085,-88.1395,2.092,24.96,1111122 
DISL,ioos:station:DISL:CATA:1,2016-12-02T21:30:00Z,30.3085,-88.1395,2.109,24.74,1111122 
DISL,ioos:station:DISL:CATA:1,2016-12-02T22:00:00Z,30.3085,-88.1395,2.137,25.86,1111122 
DISL,ioos:station:DISL:CATA:1,2016-12-02T22:30:00Z,30.3085,-88.1395,2.154,25.87,1111122 
DISL,ioos:station:DISL:CATA:1,2016-12-02T23:00:00Z,30.3085,-88.1395,2.175,26.52,1111122 
DISL,ioos:station:DISL:CATA:1,2016-12-02T23:30:00Z,30.3085,-88.1395,2.197,26.4,1111122 
DISL,ioos:station:DISL:CATA:1,2016-12-03T00:00:00Z,30.3085,-88.1395,2.226,25.75,1111122 
DISL,ioos:station:DISL:CATA:1,2016-12-03T00:30:00Z,30.3085,-88.1395,2.253,25.94,1111122 
DISL,ioos:station:DISL:CATA:1,2016-12-03T01:00:00Z,30.3085,-88.1395,2.266,25.29,1111122 
DISL,ioos:station:DISL:CATA:1,2016-12-03T01:30:00Z,30.3085,-88.1395,2.292,25.73,1111122 
DISL,ioos:station:DISL:CATA:1,2016-12-03T02:00:00Z,30.3085,-88.1395,2.322,25.73,1111122 
DISL,ioos:station:DISL:CATA:1,2016-12-03T02:30:00Z,30.3085,-88.1395,2.343,25.78,1111122 
DISL,ioos:station:DISL:CATA:1,2016-12-03T03:00:00Z,30.3085,-88.1395,2.375,25.79,1111122 
DISL,ioos:station:DISL:CATA:1,2016-12-03T03:30:00Z,30.3085,-88.1395,2.405,26.05,1111122 
DISL,ioos:station:DISL:CATA:1,2016-12-03T04:00:00Z,30.3085,-88.1395,2.416,26.47,1111122 
DISL,ioos:station:DISL:CATA:1,2016-12-03T04:30:00Z,30.3085,-88.1395,2.428,25.77,1111122 
DISL,ioos:station:DISL:CATA:1,2016-12-03T05:00:00Z,30.3085,-88.1395,2.436,25.99,1111122 
DISL,ioos:station:DISL:CATA:1,2016-12-03T05:30:00Z,30.3085,-88.1395,2.428,25.94,1111122 
DISL,ioos:station:DISL:CATA:1,2016-12-03T06:00:00Z,30.3085,-88.1395,2.411,25.17,1111122 
DISL,ioos:station:DISL:CATA:1,2016-12-03T06:30:00Z,30.3085,-88.1395,2.407,24.86,1111122 
DISL,ioos:station:DISL:CATA:1,2016-12-03T07:00:00Z,30.3085,-88.1395,2.373,24.28,1111122 
DISL,ioos:station:DISL:CATA:1,2016-12-03T07:30:00Z,30.3085,-88.1395,2.34,23.41,1111122 
DISL,ioos:station:DISL:CATA:1,2016-12-03T08:00:00Z,30.3085,-88.1395,2.313,22.72,1111122 
DISL,ioos:station:DISL:CATA:1,2016-12-03T08:30:00Z,30.3085,-88.1395,2.287,23.34,1111122 
DISL,ioos:station:DISL:CATA:1,2016-12-03T09:00:00Z,30.3085,-88.1395,2.271,23.03,1111122 
DISL,ioos:station:DISL:CATA:1,2016-12-03T09:30:00Z,30.3085,-88.1395,2.257,24.28,1111122 
DISL,ioos:station:DISL:CATA:1,2016-12-03T10:00:00Z,30.3085,-88.1395,2.236,22.87,1111122 
DISL,ioos:station:DISL:CATA:1,2016-12-03T10:30:00Z,30.3085,-88.1395,2.187,22.81,1111122 
DISL,ioos:station:DISL:CATA:1,2016-12-03T11:00:00Z,30.3085,-88.1395,2.145,23.56,1111122 
DISL,ioos:station:DISL:CATA:1,2016-12-03T11:30:00Z,30.3085,-88.1395,2.103,23.7,1111122 
DISL,ioos:station:DISL:CATA:1,2016-12-03T12:00:00Z,30.3085,-88.1395,2.078,23.93,1111122 
DISL,ioos:station:DISL:CATA:1,2016-12-03T12:30:00Z,30.3085,-88.1395,2.042,24.05,1111122 
DISL,ioos:station:DISL:CATA:1,2016-12-03T13:00:00Z,30.3085,-88.1395,2.033,23.98,1111122 
DISL,ioos:station:DISL:CATA:1,2016-12-03T13:30:00Z,30.3085,-88.1395,2.025,23.97,1111122 
DISL,ioos:station:DISL:CATA:1,2016-12-03T14:00:00Z,30.3085,-88.1395,2.013,23.94,1111122 
DISL,ioos:station:DISL:CATA:1,2016-12-03T14:30:00Z,30.3085,-88.1395,1.996,23.67,1111122 
DISL,ioos:station:DISL:CATA:1,2016-12-03T15:00:00Z,30.3085,-88.1395,1.991,23.67,1111122 
DISL,ioos:station:DISL:CATA:1,2016-12-03T15:30:00Z,30.3085,-88.1395,1.972,23.85,1111122 
DISL,ioos:station:DISL:CATA:1,2016-12-03T16:00:00Z,30.3085,-88.1395,1.962,23.77,1111122 
DISL,ioos:station:DISL:CATA:1,2016-12-03T16:30:00Z,30.3085,-88.1395,1.947,23.36,1111122 
DISL,ioos:station:DISL:CATA:1,2016-12-03T17:00:00Z,30.3085,-88.1395,1.947,23.31,1111122 
DISL,ioos:station:DISL:CATA:1,2016-12-03T17:30:00Z,30.3085,-88.1395,1.944,22.44,1111122 
DISL,ioos:station:DISL:CATA:1,2016-12-03T18:00:00Z,30.3085,-88.1395,1.943,22.3,1111122 
DISL,ioos:station:DISL:CATA:1,2016-12-03T18:30:00Z,30.3085,-88.1395,1.976,22.41,1111122 
DISL,ioos:station:DISL:CATA:1,2016-12-03T19:00:00Z,30.3085,-88.1395,2.02,23.38,1111122 
DISL,ioos:station:DISL:CATA:1,2016-12-03T19:30:00Z,30.3085,-88.1395,2.067,22.75,1111122 
DISL,ioos:station:DISL:CATA:1,2016-12-03T20:00:00Z,30.3085,-88.1395,2.081,22.5,1111122 
DISL,ioos:station:DISL:CATA:1,2016-12-03T20:30:00Z,30.3085,-88.1395,2.098,23.63,1111122 
DISL,ioos:station:DISL:CATA:1,2016-12-03T21:00:00Z,30.3085,-88.1395,2.117,22.92,1111122 
DISL,ioos:station:DISL:CATA:1,2016-12-03T21:30:00Z,30.3085,-88.1395,2.133,24.62,1111122 
DISL,ioos:station:DISL:CATA:1,2016-12-03T22:00:00Z,30.3085,-88.1395,2.139,24.15,1111122 
DISL,ioos:station:DISL:CATA:1,2016-12-03T22:30:00Z,30.3085,-88.1395,2.168,23.31,1111122 
DISL,ioos:station:DISL:CATA:1,2016-12-03T23:00:00Z,30.3085,-88.1395,2.189,22.42,1111122 
DISL,ioos:station:DISL:CATA:1,2016-12-03T23:30:00Z,30.3085,-88.1395,2.195,23.4,1111122 
DISL,ioos:station:DISL:CATA:1,2016-12-04T00:00:00Z,30.3085,-88.1395,2.213,21.89,1111122 
DISL,ioos:station:DISL:CATA:1,2016-12-04T00:30:00Z,30.3085,-88.1395,2.228,23.67,1111122 
DISL,ioos:station:DISL:CATA:1,2016-12-04T01:00:00Z,30.3085,-88.1395,2.258,24.03,1111122 
DISL,ioos:station:DISL:CATA:1,2016-12-04T01:30:00Z,30.3085,-88.1395,2.306,24.15,1111122 
DISL,ioos:station:DISL:CATA:1,2016-12-04T02:00:00Z,30.3085,-88.1395,2.326,23.95,1111122 
DISL,ioos:station:DISL:CATA:1,2016-12-04T02:30:00Z,30.3085,-88.1395,2.37,23.65,1111122 
DISL,ioos:station:DISL:CATA:1,2016-12-04T03:00:00Z,30.3085,-88.1395,2.386,24.01,1111122 
DISL,ioos:station:DISL:CATA:1,2016-12-04T03:30:00Z,30.3085,-88.1395,2.395,23.17,1111122 
DISL,ioos:station:DISL:CATA:1,2016-12-04T04:00:00Z,30.3085,-88.1395,2.444,23.3,1111122 
DISL,ioos:station:DISL:CATA:1,2016-12-04T04:30:00Z,30.3085,-88.1395,2.456,24.77,1111122 
DISL,ioos:station:DISL:CATA:1,2016-12-04T05:00:00Z,30.3085,-88.1395,2.475,23.42,1111122 
DISL,ioos:station:DISL:CATA:1,2016-12-04T05:30:00Z,30.3085,-88.1395,2.483,24.39,1111122 
DISL,ioos:station:DISL:CATA:1,2016-12-04T06:00:00Z,30.3085,-88.1395,2.5,25.78,1111122 
DISL,ioos:station:DISL:CATA:1,2016-12-04T06:30:00Z,30.3085,-88.1395,2.526,25.45,1111122 
DISL,ioos:station:DISL:CATA:1,2016-12-04T07:00:00Z,30.3085,-88.1395,2.542,25.34,1111122 
DISL,ioos:station:DISL:CATA:1,2016-12-04T07:30:00Z,30.3085,-88.1395,2.563,26.14,1111122 
DISL,ioos:station:DISL:CATA:1,2016-12-04T08:00:00Z,30.3085,-88.1395,2.591,27.0,1111122 
DISL,ioos:station:DISL:CATA:1,2016-12-04T08:30:00Z,30.3085,-88.1395,2.595,26.18,1111122 
DISL,ioos:station:DISL:CATA:1,2016-12-04T09:00:00Z,30.3085,-88.1395,2.585,27.34,1111122 
DISL,ioos:station:DISL:CATA:1,2016-12-04T09:30:00Z,30.3085,-88.1395,2.573,27.16,1111122 
DISL,ioos:station:DISL:CATA:1,2016-12-04T10:00:00Z,30.3085,-88.1395,2.572,27.57,1111122 
DISL,ioos:station:DISL:CATA:1,2016-12-04T10:30:00Z,30.3085,-88.1395,2.544,27.63,1111122 
DISL,ioos:station:DISL:CATA:1,2016-12-04T11:00:00Z,30.3085,-88.1395,2.507,27.54,1111122 
DISL,ioos:station:DISL:CATA:1,2016-12-04T11:30:00Z,30.3085,-88.1395,2.456,26.89,1111122 
DISL,ioos:station:DISL:CATA:1,2016-12-04T12:00:00Z,30.3085,-88.1395,2.416,25.71,1111122 
DISL,ioos:station:DISL:CATA:1,2016-12-04T12:30:00Z,30.3085,-88.1395,2.388,26.9,1111122 
DISL,ioos:station:DISL:CATA:1,2016-12-04T13:00:00Z,30.3085,-88.1395,2.36,26.04,1111122 
DISL,ioos:station:DISL:CATA:1,2016-12-04T13:30:00Z,30.3085,-88.1395,2.397,26.62,1111122 
DISL,ioos:station:DISL:CATA:1,2016-12-04T14:00:00Z,30.3085,-88.1395,2.461,26.36,1111122 
DISL,ioos:station:DISL:CATA:1,2016-12-04T14:30:00Z,30.3085,-88.1395,2.429,25.15,1111122 
DISL,ioos:station:DISL:CATA:1,2016-12-04T15:00:00Z,30.3085,-88.1395,2.314,24.85,1111122 
DISL,ioos:station:DISL:CATA:1,2016-12-04T15:30:00Z,30.3085,-88.1395,2.261,26.84,1111122 
DISL,ioos:station:DISL:CATA:1,2016-12-04T16:00:00Z,30.3085,-88.1395,2.222,27.38,1111122 
DISL,ioos:station:DISL:CATA:1,2016-12-04T16:30:00Z,30.3085,-88.1395,2.236,27.88,1111122 
DISL,ioos:station:DISL:CATA:1,2016-12-04T17:00:00Z,30.3085,-88.1395,2.222,26.98,1111122 
DISL,ioos:station:DISL:CATA:1,2016-12-04T17:30:00Z,30.3085,-88.1395,2.186,26.53,1111122 
DISL,ioos:station:DISL:CATA:1,2016-12-04T18:00:00Z,30.3085,-88.1395,2.189,26.56,1111122 
DISL,ioos:station:DISL:CATA:1,2016-12-04T18:30:00Z,30.3085,-88.1395,2.205,26.97,1111122 
DISL,ioos:station:DISL:CATA:1,2016-12-04T19:00:00Z,30.3085,-88.1395,2.23,27.7,1111122 
DISL,ioos:station:DISL:CATA:1,2016-12-04T19:30:00Z,30.3085,-88.1395,2.267,26.93,1111122 
DISL,ioos:station:DISL:CATA:1,2016-12-04T20:00:00Z,30.3085,-88.1395,2.287,27.07,1111122 
DISL,ioos:station:DISL:CATA:1,2016-12-04T20:30:00Z,30.3085,-88.1395,2.296,27.31,1111122 
DISL,ioos:station:DISL:CATA:1,2016-12-04T21:00:00Z,30.3085,-88.1395,2.317,26.89,1111122 
DISL,ioos:station:DISL:CATA:1,2016-12-04T21:30:00Z,30.3085,-88.1395,2.326,26.37,1111122 
DISL,ioos:station:DISL:CATA:1,2016-12-04T22:00:00Z,30.3085,-88.1395,2.345,26.75,1111122 
DISL,ioos:station:DISL:CATA:1,2016-12-04T22:30:00Z,30.3085,-88.1395,2.361,26.21,1111122 
DISL,ioos:station:DISL:CATA:1,2016-12-04T23:00:00Z,30.3085,-88.1395,2.355,25.51,1111122 
DISL,ioos:station:DISL:CATA:1,2016-12-04T23:30:00Z,30.3085,-88.1395,2.374,24.01,1111122 
DISL,ioos:station:DISL:CATA:1,2016-12-05T00:00:00Z,30.3085,-88.1395,2.361,24.17,1111122 
DISL,ioos:station:DISL:CATA:1,2016-12-05T00:30:00Z,30.3085,-88.1395,2.379,25.94,1111122 
DISL,ioos:station:DISL:CATA:1,2016-12-05T01:00:00Z,30.3085,-88.1395,2.42,25.24,1111122 
DISL,ioos:station:DISL:CATA:1,2016-12-05T01:30:00Z,30.3085,-88.1395,2.387,25.42,1111122 
DISL,ioos:station:DISL:CATA:1,2016-12-05T02:00:00Z,30.3085,-88.1395,2.387,24.56,1111122 
DISL,ioos:station:DISL:CATA:1,2016-12-05T02:30:00Z,30.3085,-88.1395,2.407,25.69,1111122 
DISL,ioos:station:DISL:CATA:1,2016-12-05T03:00:00Z,30.3085,-88.1395,2.436,23.57,1111122 
DISL,ioos:station:DISL:CATA:1,2016-12-05T03:30:00Z,30.3085,-88.1395,2.456,26.52,1111122 
DISL,ioos:station:DISL:CATA:1,2016-12-05T04:00:00Z,30.3085,-88.1395,2.481,25.34,1111122 
DISL,ioos:station:DISL:CATA:1,2016-12-05T04:30:00Z,30.3085,-88.1395,2.489,25.04,1111122 
DISL,ioos:station:DISL:CATA:1,2016-12-05T05:00:00Z,30.3085,-88.1395,2.479,25.18,1111122 
DISL,ioos:station:DISL:CATA:1,2016-12-05T05:30:00Z,30.3085,-88.1395,2.483,26.4,1111122 
DISL,ioos:station:DISL:CATA:1,2016-12-05T06:00:00Z,30.3085,-88.1395,2.519,26.66,1111122 
DISL,ioos:station:DISL:CATA:1,2016-12-05T06:30:00Z,30.3085,-88.1395,2.549,26.36,1111122 
DISL,ioos:station:DISL:CATA:1,2016-12-05T07:00:00Z,30.3085,-88.1395,2.521,24.53,1111122 
DISL,ioos:station:DISL:CATA:1,2016-12-05T07:30:00Z,30.3085,-88.1395,2.565,26.89,1111122 
DISL,ioos:station:DISL:CATA:1,2016-12-05T08:00:00Z,30.3085,-88.1395,2.537,25.82,1111122 
DISL,ioos:station:DISL:CATA:1,2016-12-05T08:30:00Z,30.3085,-88.1395,2.541,27.79,1111122 
DISL,ioos:station:DISL:CATA:1,2016-12-05T09:00:00Z,30.3085,-88.1395,2.556,27.21,1111122 
DISL,ioos:station:DISL:CATA:1,2016-12-05T09:30:00Z,30.3085,-88.1395,2.576,28.15,1111122 
DISL,ioos:station:DISL:CATA:1,2016-12-05T10:00:00Z,30.3085,-88.1395,2.562,28.45,1111122 
DISL,ioos:station:DISL:CATA:1,2016-12-05T10:30:00Z,30.3085,-88.1395,2.568,28.43,1111122 
DISL,ioos:station:DISL:CATA:1,2016-12-05T11:00:00Z,30.3085,-88.1395,2.507,27.77,1111122 
DISL,ioos:station:DISL:CATA:1,2016-12-05T11:30:00Z,30.3085,-88.1395,2.468,26.88,1111122 
DISL,ioos:station:DISL:CATA:1,2016-12-05T12:00:00Z,30.3085,-88.1395,2.42,24.31,1111122 
DISL,ioos:station:DISL:CATA:1,2016-12-05T12:30:00Z,30.3085,-88.1395,2.37,22.53,1111122 
DISL,ioos:station:DISL:CATA:1,2016-12-05T13:00:00Z,30.3085,-88.1395,2.316,22.55,1111122 
DISL,ioos:station:DISL:CATA:1,2016-12-05T13:30:00Z,30.3085,-88.1395,2.259,23.77,1111122 
DISL,ioos:station:DISL:CATA:1,2016-12-05T14:00:00Z,30.3085,-88.1395,2.208,22.33,1111122 
DISL,ioos:station:DISL:CATA:1,2016-12-05T14:30:00Z,30.3085,-88.1395,2.173,23.23,1111122 
DISL,ioos:station:DISL:CATA:1,2016-12-05T15:00:00Z,30.3085,-88.1395,2.167,22.32,1111122 
DISL,ioos:station:DISL:CATA:1,2016-12-05T15:30:00Z,30.3085,-88.1395,2.156,20.88,1111122 
DISL,ioos:station:DISL:CATA:1,2016-12-05T16:00:00Z,30.3085,-88.1395,2.152,20.55,1111122 
DISL,ioos:station:DISL:CATA:1,2016-12-05T16:30:00Z,30.3085,-88.1395,2.15,20.33,1111122 
DISL,ioos:station:DISL:CATA:1,2016-12-05T17:00:00Z,30.3085,-88.1395,2.159,21.02,1111122 
DISL,ioos:station:DISL:CATA:1,2016-12-05T17:30:00Z,30.3085,-88.1395,2.191,21.55,1111122 
DISL,ioos:station:DISL:CATA:1,2016-12-05T18:00:00Z,30.3085,-88.1395,2.213,22.26,1111122 
DISL,ioos:station:DISL:CATA:1,2016-12-05T18:30:00Z,30.3085,-88.1395,2.236,22.41,1111122 
DISL,ioos:station:DISL:CATA:1,2016-12-05T19:00:00Z,30.3085,-88.1395,2.215,23.22,1111122 
DISL,ioos:station:DISL:CATA:1,2016-12-05T19:30:00Z,30.3085,-88.1395,2.26,20.81,1111122 
DISL,ioos:station:DISL:CATA:1,2016-12-05T20:00:00Z,30.3085,-88.1395,2.26,20.81,1111122 
DISL,ioos:station:DISL:CATA:1,2016-12-05T20:30:00Z,30.3085,-88.1395,2.331,22.02,1111122 
DISL,ioos:station:DISL:CATA:1,2016-12-05T21:00:00Z,30.3085,-88.1395,2.332,21.74,1111122 
DISL,ioos:station:DISL:CATA:1,2016-12-05T21:30:00Z,30.3085,-88.1395,2.364,21.57,1111122 
DISL,ioos:station:DISL:CATA:1,2016-12-05T22:00:00Z,30.3085,-88.1395,2.413,21.01,1111122 
DISL,ioos:station:DISL:CATA:1,2016-12-05T22:30:00Z,30.3085,-88.1395,2.396,21.2,1111122 
DISL,ioos:station:DISL:CATA:1,2016-12-05T23:00:00Z,30.3085,-88.1395,2.363,21.62,1111122 
DISL,ioos:station:DISL:CATA:1,2016-12-05T23:30:00Z,30.3085,-88.1395,2.351,21.26,1111122 
DISL,ioos:station:DISL:CATA:1,2016-12-06T00:00:00Z,30.3085,-88.1395,2.339,21.15,1111122 
DISL,ioos:station:DISL:CATA:1,2016-12-06T00:30:00Z,30.3085,-88.1395,2.274,20.22,1111122 
DISL,ioos:station:DISL:CATA:1,2016-12-06T01:00:00Z,30.3085,-88.1395,2.251,20.46,1111122 
DISL,ioos:station:DISL:CATA:1,2016-12-06T01:30:00Z,30.3085,-88.1395,2.281,20.78,1111122 
DISL,ioos:station:DISL:CATA:1,2016-12-06T02:00:00Z,30.3085,-88.1395,2.338,20.43,1111122 
DISL,ioos:station:DISL:CATA:1,2016-12-06T02:30:00Z,30.3085,-88.1395,2.388,20.87,1111122 
DISL,ioos:station:DISL:CATA:1,2016-12-06T03:00:00Z,30.3085,-88.1395,2.42,20.08,1111122 
DISL,ioos:station:DISL:CATA:1,2016-12-06T03:30:00Z,30.3085,-88.1395,2.466,20.15,1111122 
DISL,ioos:station:DISL:CATA:1,2016-12-06T04:00:00Z,30.3085,-88.1395,2.504,19.02,1111122 
DISL,ioos:station:DISL:CATA:1,2016-12-06T04:30:00Z,30.3085,-88.1395,2.527,20.57,1111122 
DISL,ioos:station:DISL:CATA:1,2016-12-06T05:00:00Z,30.3085,-88.1395,2.554,21.76,1111122 
DISL,ioos:station:DISL:CATA:1,2016-12-06T05:30:00Z,30.3085,-88.1395,2.593,21.52,1111122 
DISL,ioos:station:DISL:CATA:1,2016-12-06T06:00:00Z,30.3085,-88.1395,2.62,19.1,1111122 
DISL,ioos:station:DISL:CATA:1,2016-12-06T06:30:00Z,30.3085,-88.1395,2.65,21.09,1111122 
DISL,ioos:station:DISL:CATA:1,2016-12-06T07:00:00Z,30.3085,-88.1395,2.653,19.7,1111122 
DISL,ioos:station:DISL:CATA:1,2016-12-06T07:30:00Z,30.3085,-88.1395,2.668,22.07,1111122 
DISL,ioos:station:DISL:CATA:1,2016-12-06T08:00:00Z,30.3085,-88.1395,2.688,23.3,1111122 
DISL,ioos:station:DISL:CATA:1,2016-12-06T08:30:00Z,30.3085,-88.1395,2.676,22.88,1111122 
DISL,ioos:station:DISL:CATA:1,2016-12-06T09:00:00Z,30.3085,-88.1395,2.692,22.51,1111122 
DISL,ioos:station:DISL:CATA:1,2016-12-06T09:30:00Z,30.3085,-88.1395,2.664,23.3,1111122 
DISL,ioos:station:DISL:CATA:1,2016-12-06T10:00:00Z,30.3085,-88.1395,2.676,23.37,1111122 
DISL,ioos:station:DISL:CATA:1,2016-12-06T10:30:00Z,30.3085,-88.1395,2.658,22.4,1111122 
DISL,ioos:station:DISL:CATA:1,2016-12-06T11:00:00Z,30.3085,-88.1395,2.67,22.07,1111122 
DISL,ioos:station:DISL:CATA:1,2016-12-06T11:30:00Z,30.3085,-88.1395,2.627,22.29,1111122 
DISL,ioos:station:DISL:CATA:1,2016-12-06T12:00:00Z,30.3085,-88.1395,2.57,22.95,1111122 
DISL,ioos:station:DISL:CATA:1,2016-12-06T12:30:00Z,30.3085,-88.1395,2.564,22.57,1111122 
DISL,ioos:station:DISL:CATA:1,2016-12-06T13:00:00Z,30.3085,-88.1395,2.523,22.74,1111122 
DISL,ioos:station:DISL:CATA:1,2016-12-06T13:30:00Z,30.3085,-88.1395,2.475,21.82,1111122 
DISL,ioos:station:DISL:CATA:1,2016-12-06T14:00:00Z,30.3085,-88.1395,2.415,21.42,1111122 